Location: Andrest
(43.3200°N, 0.0641°E)
Time: 10:20:21
(UTC+00:00)

Cosmos 1602 - Pass Details

Date: 01 December 2020
Orbit: 512 x 534 km, 82.5° (Epoch: 23 January)

Event Time Altitude Azimuth Distance (km) Brightness Sun altitude
Rises 17:39:33 0° 352° (N) 2,686 7.2 -13.2°
Reaches altitude 10° 17:41:43 10° 353° (N) 1,788 6.3 -13.6°
Maximum altitude 17:45:39 82° 83° (E) 538 3.6 -14.3°
Drops below altitude 10° 17:49:31 10° 170° (S) 1,759 6.5 -14.9°
Sets 17:51:38 0° 171° (S) 2,639 7.4 -15.3°
